sat.trackr.live / text

‹ back to catalog

STARLINK-32651

NORAD 62314 · 2024-239P

PAYLOAD ACTIVE UNKNOWN

§ Identity

Operator
Country
US
Launch date
2024-12-13
Launch site
AFWTR
Launch vehicle
Mass (kg)
RCS (m²)

Purposes: comms

External: N2YO · Heavens-Above · Gunter

§ Orbital elements

Epoch: 2026-09-21T12:59:06.910944Z

Period
93.85 min
Inclination
53.1603°
Eccentricity
0.0001069
Mean motion
15.34410998 rev/d
Perigee alt
461.9 km
Apogee alt
463.4 km
Semi-major
6,840.8 km
B*
7.3406e-4
RAAN
1.0870°
Arg perigee
82.6370°
Mean anomaly
277.4754°
Rev number
9,941

§ Raw data

STARLINK-326511 62314U 24239P   26264.54105221  .00024515  00000+0  73406-3 0  99952 62314  53.1603   1.0870 0001069  82.6370 277.4754 15.34410998 99417

JSON: /api/v1/satellites/62314 · /tle

For live sub-satellite position, see the globe view (requires WebGL).

§ Visibility from observer

Set your observer location to see the next 7 days of passes ≥ 10°. The values pass through the URL so the page stays shareable.

No JS? Fill the form by hand. The geolocation button needs JavaScript.